Creston, IA

7:30 PM CST on January 20, 2018 (GMT -0600)
Creston Municipal

Weather History for KCSQ - December, 2012

Change the Weather History Date:

Wednesday, December 5, 2012

  Actual Average Record
Temperature  
Mean Temperature 38 °F -  
Max Temperature 50 °F 40 °F 69 °F (2001)
Min Temperature 26 °F 22 °F -4 °F (2005)
Degree Days  
Heating Degree Days 27    
Moisture  
Dew Point 27 °F    
Average Humidity 61    
Maximum Humidity 80    
Minimum Humidity 40    
Precipitation  
Precipitation 0.00 in - - ()
Sea Level Pressure  
Sea Level Pressure 30.19 in    
Wind  
Wind Speed 11 mph (SE)    
Max Wind Speed 16 mph    
Max Gust Speed 18 mph    
Visibility 10 miles    
Events      
Averages and records for this station are not official NWS values.
T = Trace of Precipitation, MM = Missing Value Source: NWS Daily Summary

Daily Weather History Graph

Daily Weather History Graph

Search for Another Location

Airport or City:

Trip Planner

Search our weather history database for the weather conditions in past years. The results will help you decide how hot, cold, wet, or windy it might be!

Date:

Astronomy

Dec. 05, 2012 Rise Set
Actual Time 7:27 AM CST 4:49 PM CST
Civil Twilight 6:56 AM CST 5:19 PM CST
Nautical Twilight 6:22 AM CST 5:54 PM CST
Astronomical Twilight 5:49 AM CST 6:27 PM CST
Moon 11:41 PM CST (12/5) 11:49 AM CST (12/5)
Length of Visible Light 10h 23m
Length of Day
9h 21m
Waning Gibbous, 59% of the Moon is Illuminated
Dec 5
Waning Gibbous
Dec 6
Last Quarter
Dec 13
New
Dec 19
First Quarter
Dec 28
Full

Hourly Weather History & Observations

Time (CST) Temp. Windchill Dew Point Humidity Pressure Visibility Wind Dir Wind Speed Gust Speed Precip Events Conditions
12:15 AM 33.8 °F 25.8 °F 24.8 °F 70% 30.33 in 10.0 mi NE 10.4 mph - N/A   Clear
12:35 AM 32.0 °F 24.2 °F 24.8 °F 75% 30.33 in 10.0 mi ENE 9.2 mph - N/A   Clear
12:55 AM 30.2 °F 21.9 °F 24.8 °F 80% 30.34 in 10.0 mi ENE 9.2 mph - N/A   Clear
1:15 AM 30.2 °F 21.3 °F 24.8 °F 80% 30.33 in 10.0 mi ENE 10.4 mph - N/A   Clear
1:55 AM 30.2 °F 22.6 °F 24.8 °F 80% 30.34 in 10.0 mi East 8.1 mph - N/A   Clear
2:15 AM 30.2 °F 21.9 °F 24.8 °F 80% 30.35 in 10.0 mi ENE 9.2 mph - N/A   Clear
2:35 AM 30.2 °F 21.9 °F 23.0 °F 75% 30.35 in 10.0 mi East 9.2 mph - N/A   Clear
2:55 AM 30.2 °F 20.8 °F 23.0 °F 75% 30.35 in 10.0 mi ENE 11.5 mph - N/A   Clear
3:15 AM 30.2 °F 20.2 °F 23.0 °F 75% 30.34 in 10.0 mi ENE 12.7 mph - N/A   Clear
3:35 AM 30.2 °F 20.8 °F 23.0 °F 75% 30.33 in 10.0 mi ENE 11.5 mph - N/A   Clear
3:55 AM 28.4 °F 19.1 °F 21.2 °F 74% 30.32 in 10.0 mi East 10.4 mph - N/A   Clear
4:15 AM 28.4 °F 19.7 °F 21.2 °F 74% 30.32 in 10.0 mi East 9.2 mph - N/A   Clear
4:35 AM 28.4 °F 19.1 °F 21.2 °F 74% 30.32 in 10.0 mi East 10.4 mph - N/A   Clear
4:55 AM 26.6 °F 17.5 °F 21.2 °F 80% 30.32 in 10.0 mi East 9.2 mph - N/A   Clear
5:15 AM 26.6 °F 17.5 °F 21.2 °F 80% 30.32 in 10.0 mi East 9.2 mph - N/A   Clear
5:35 AM 26.6 °F 17.5 °F 21.2 °F 80% 30.32 in 10.0 mi East 9.2 mph - N/A   Clear
5:55 AM 26.6 °F 17.5 °F 21.2 °F 80% 30.32 in 10.0 mi East 9.2 mph - N/A   Clear
6:15 AM 26.6 °F 17.5 °F 19.4 °F 74% 30.31 in 10.0 mi ESE 9.2 mph - N/A   Clear
6:35 AM 26.6 °F 19.1 °F 19.4 °F 74% 30.31 in 10.0 mi East 6.9 mph - N/A   Clear
6:55 AM 26.6 °F 19.1 °F 19.4 °F 74% 30.31 in 10.0 mi East 6.9 mph - N/A   Clear
8:35 AM 30.2 °F 20.2 °F 23.0 °F 75% 30.30 in 10.0 mi SE 12.7 mph - N/A   Clear
8:55 AM 32.0 °F 23.0 °F 23.0 °F 69% 30.30 in 10.0 mi SE 11.5 mph - N/A   Clear
9:15 AM 33.8 °F 24.8 °F 24.8 °F 70% 30.30 in 10.0 mi SE 12.7 mph - N/A   Clear
9:35 AM 35.6 °F 26.6 °F 24.8 °F 65% 30.31 in 10.0 mi SE 13.8 mph - N/A   Clear
9:55 AM 35.6 °F 26.2 °F 24.8 °F 65% 30.30 in 10.0 mi SE 15.0 mph - N/A   Clear
10:15 AM 39.2 °F 30.5 °F 26.6 °F 61% 30.30 in 10.0 mi SE 16.1 mph - N/A   Clear
10:35 AM 39.2 °F 31.6 °F 26.6 °F 61% 30.30 in 10.0 mi SE 12.7 mph - N/A   Clear
10:55 AM 41.0 °F 34.3 °F 26.6 °F 57% 30.28 in 10.0 mi SE 11.5 mph - N/A   Clear
11:15 AM 41.0 °F 33.9 °F 26.6 °F 57% 30.27 in 10.0 mi SSE 12.7 mph - N/A   Clear
11:35 AM 42.8 °F 35.4 °F 26.6 °F 53% 30.25 in 10.0 mi SE 15.0 mph - N/A   Clear
11:55 AM 44.6 °F 38.1 °F 26.6 °F 49% 30.24 in 10.0 mi SE 13.8 mph - N/A   Clear
12:15 PM 44.6 °F 38.1 °F 26.6 °F 49% 30.22 in 10.0 mi SSE 13.8 mph - N/A   Clear
12:35 PM 44.6 °F 38.8 °F 26.6 °F 49% 30.21 in 10.0 mi SSE 11.5 mph - N/A   Clear
12:55 PM 46.4 °F 40.7 °F 28.4 °F 50% 30.20 in 10.0 mi SSE 12.7 mph - N/A   Clear
1:15 PM 46.4 °F 40.7 °F 26.6 °F 46% 30.18 in 10.0 mi SSE 12.7 mph - N/A   Clear
1:35 PM 48.2 °F - 28.4 °F 46% 30.16 in 10.0 mi SSE 11.5 mph - N/A   Clear
1:55 PM 48.2 °F - 28.4 °F 46% 30.15 in 10.0 mi SE 15.0 mph - N/A   Clear
2:15 PM 48.2 °F - 28.4 °F 46% 30.14 in 10.0 mi SSE 11.5 mph - N/A   Clear
2:35 PM 50.0 °F - 28.4 °F 43% 30.13 in 10.0 mi SSE 10.4 mph - N/A   Clear
2:55 PM 50.0 °F - 28.4 °F 43% 30.12 in 10.0 mi SE 13.8 mph - N/A   Clear
3:15 PM 50.0 °F - 28.4 °F 43% 30.12 in 10.0 mi SE 12.7 mph - N/A   Clear
3:35 PM 50.0 °F - 26.6 °F 40% 30.11 in 10.0 mi SSE 15.0 mph - N/A   Clear
3:55 PM 48.2 °F - 28.4 °F 46% 30.11 in 10.0 mi SSE 11.5 mph 16.1 mph N/A   Clear
4:15 PM 48.2 °F - 28.4 °F 46% 30.11 in 10.0 mi SSE 11.5 mph - N/A   Clear
4:35 PM 48.2 °F - 28.4 °F 46% 30.10 in 10.0 mi SE 13.8 mph - N/A   Clear
4:55 PM 46.4 °F 41.9 °F 30.2 °F 53% 30.10 in 10.0 mi SE 9.2 mph - N/A   Clear
5:15 PM 46.4 °F 40.7 °F 30.2 °F 53% 30.09 in 10.0 mi SE 12.7 mph - N/A   Clear
5:35 PM 46.4 °F 40.4 °F 30.2 °F 53% 30.08 in 10.0 mi SE 13.8 mph - N/A   Clear
6:15 PM 46.4 °F 40.7 °F 30.2 °F 53% 30.07 in 10.0 mi SE 12.7 mph - N/A   Clear
6:35 PM 44.6 °F 38.1 °F 30.2 °F 57% 30.07 in 10.0 mi SSE 13.8 mph - N/A   Clear
6:55 PM 44.6 °F 38.1 °F 30.2 °F 57% 30.06 in 10.0 mi SSE 13.8 mph - N/A   Clear
7:15 PM 44.6 °F 37.4 °F 30.2 °F 57% 30.04 in 10.0 mi SSE 16.1 mph - N/A   Clear
7:35 PM 44.6 °F 37.4 °F 32.0 °F 61% 30.03 in 10.0 mi SSE 16.1 mph - N/A   Clear
7:55 PM 44.6 °F 38.1 °F 30.2 °F 57% 30.04 in 10.0 mi SSE 13.8 mph - N/A   Clear
8:15 PM 44.6 °F 37.8 °F 30.2 °F 57% 30.02 in 10.0 mi SSE 15.0 mph - N/A   Clear
8:35 PM 44.6 °F 38.8 °F 30.2 °F 57% 30.02 in 10.0 mi SSE 11.5 mph - N/A   Clear
8:55 PM 44.6 °F 39.2 °F 30.2 °F 57% 30.01 in 10.0 mi SSE 10.4 mph - N/A   Clear
9:15 PM 44.6 °F 38.1 °F 30.2 °F 57% 30.00 in 10.0 mi SSE 13.8 mph - N/A   Clear
9:35 PM 44.6 °F 37.8 °F 30.2 °F 57% 30.01 in 10.0 mi SSE 15.0 mph - N/A   Clear
9:55 PM 44.6 °F 38.1 °F 30.2 °F 57% 30.01 in 10.0 mi SSE 13.8 mph - N/A   Clear
10:15 PM 44.6 °F 37.8 °F 30.2 °F 57% 29.99 in 10.0 mi SSE 15.0 mph - N/A   Clear
10:35 PM 46.4 °F 40.1 °F 30.2 °F 53% 29.99 in 10.0 mi SSE 15.0 mph - N/A   Clear
10:55 PM 44.6 °F 38.4 °F 30.2 °F 57% 29.98 in 10.0 mi SSE 12.7 mph - N/A   Clear
11:15 PM 46.4 °F 40.7 °F 30.2 °F 53% 29.98 in 10.0 mi SSE 12.7 mph 18.4 mph N/A   Clear
11:35 PM 46.4 °F 40.4 °F 30.2 °F 53% 29.98 in 10.0 mi South 13.8 mph - N/A   Clear
11:55 PM 46.4 °F 40.1 °F 30.2 °F 53% 29.98 in 10.0 mi South 15.0 mph 18.4 mph N/A   Clear